Time,TemperatureF,DewpointF,PressureIn,WindDirection,WindDirectionDegrees,WindSpeedMPH,WindSpeedGustMPH,Humidity,HourlyPrecipIn,Conditions,Clouds,dailyrainin,SoftwareType,DateUTC
2013-02-07 15:52:00,53.4,36.0,0.00,West,281,7.2,11.5,52,0.00,,,0.00,WUHU216CR1000,2013-02-07 23:52:00,
2013-02-07 15:53:00,53.4,36.0,0.00,West,281,7.2,11.5,52,0.00,,,0.00,WUHU216CR1000,2013-02-07 23:53:00,
2013-02-07 15:58:00,53.4,36.0,0.00,West,281,7.2,11.5,52,0.00,,,0.00,WUHU216CR1000,2013-02-07 23:58:00,
2013-02-07 16:03:00,53.3,36.5,0.00,WNW,287,7.9,11.5,53,0.00,,,0.00,WUHU216CR1000,2013-02-08 00:03:00,
2013-02-07 16:08:00,53.3,36.5,0.00,WNW,287,7.9,11.3,53,0.00,,,0.00,WUHU216CR1000,2013-02-08 00:08:00,
2013-02-07 16:17:00,53.0,36.1,0.00,West,281,8.0,12.3,53,0.00,,,0.00,WUHU216CR1000,2013-02-08 00:17:00,
2013-02-07 16:22:00,53.0,36.1,0.00,West,281,8.0,12.3,53,0.00,,,0.00,WUHU216CR1000,2013-02-08 00:22:00,
2013-02-07 16:32:00,51.9,35.7,0.00,WSW,257,9.6,15.6,54,0.00,,,0.00,WUHU216CR1000,2013-02-08 00:32:00,
2013-02-07 16:37:00,51.9,35.7,0.00,WSW,257,9.6,15.6,54,0.00,,,0.00,WUHU216CR1000,2013-02-08 00:37:00,
2013-02-07 16:47:00,50.8,34.9,0.00,West,264,10.4,16.1,54,0.00,,,0.00,WUHU216CR1000,2013-02-08 00:47:00,
2013-02-07 16:52:00,50.8,34.9,0.00,West,264,10.4,16.1,54,0.00,,,0.00,WUHU216CR1000,2013-02-08 00:52:00,
2013-02-07 17:02:00,50.6,35.9,0.00,WSW,257,9.6,14.1,57,0.00,,,0.00,WUHU216CR1000,2013-02-08 01:02:00,
2013-02-07 17:07:00,50.6,35.9,0.00,WSW,257,9.6,14.1,57,0.00,,,0.00,WUHU216CR1000,2013-02-08 01:07:00,
2013-02-07 17:17:00,49.9,36.0,0.00,WSW,254,9.7,14.9,59,0.00,,,0.00,WUHU216CR1000,2013-02-08 01:17:00,
2013-02-07 17:22:00,49.9,36.0,0.00,WSW,254,9.7,14.9,59,0.00,,,0.00,WUHU216CR1000,2013-02-08 01:22:00,
2013-02-07 17:32:00,48.7,36.5,0.00,WSW,251,8.6,15.7,63,0.00,,,0.00,WUHU216CR1000,2013-02-08 01:32:00,
2013-02-07 17:37:00,48.7,36.5,0.00,WSW,251,8.6,15.7,63,0.00,,,0.00,WUHU216CR1000,2013-02-08 01:37:00,
2013-02-07 17:47:00,47.6,36.7,0.00,WSW,248,6.6,13.5,66,0.00,,,0.00,WUHU216CR1000,2013-02-08 01:47:00,
2013-02-07 17:52:00,47.6,36.7,0.00,WSW,248,6.6,13.5,66,0.00,,,0.00,WUHU216CR1000,2013-02-08 01:52:00,
2013-02-07 18:02:00,46.3,36.7,0.00,WSW,244,4.2,7.9,69,0.00,,,0.00,WUHU216CR1000,2013-02-08 02:02:00,
2013-02-07 18:07:00,46.3,36.7,0.00,WSW,244,4.2,7.9,69,0.00,,,0.00,WUHU216CR1000,2013-02-08 02:07:00,
2013-02-07 18:17:00,45.4,36.6,0.00,WSW,247,2.7,4.6,71,0.00,,,0.00,WUHU216CR1000,2013-02-08 02:17:00,
2013-02-07 18:22:00,45.4,36.6,0.00,WSW,247,2.7,4.6,71,0.00,,,0.00,WUHU216CR1000,2013-02-08 02:22:00,
2013-02-07 18:32:00,44.6,36.5,0.00,SW,230,2.3,3.1,73,0.00,,,0.00,WUHU216CR1000,2013-02-08 02:32:00,
2013-02-07 18:37:00,44.6,36.5,0.00,SW,230,2.3,3.1,73,0.00,,,0.00,WUHU216CR1000,2013-02-08 02:37:00,
2013-02-07 18:47:00,44.0,36.1,0.00,SW,227,2.8,3.9,74,0.00,,,0.00,WUHU216CR1000,2013-02-08 02:47:00,
2013-02-07 18:52:00,44.0,36.1,0.00,SW,227,2.8,3.9,74,0.00,,,0.00,WUHU216CR1000,2013-02-08 02:52:00,
2013-02-07 19:02:00,42.7,35.9,0.00,SW,226,2.7,3.8,77,0.00,,,0.00,WUHU216CR1000,2013-02-08 03:02:00,
2013-02-07 19:07:00,42.7,35.9,0.00,SW,226,2.7,3.8,77,0.00,,,0.00,WUHU216CR1000,2013-02-08 03:07:00,
2013-02-07 19:17:00,42.2,36.1,0.00,West,279,0.9,3.1,79,0.00,,,0.00,WUHU216CR1000,2013-02-08 03:17:00,
2013-02-07 19:22:00,42.2,36.1,0.00,West,279,0.9,3.1,79,0.00,,,0.00,WUHU216CR1000,2013-02-08 03:22:00,
2013-02-07 19:32:00,41.5,36.7,0.00,WNW,287,2.7,3.7,83,0.00,,,0.00,WUHU216CR1000,2013-02-08 03:32:00,
2013-02-07 19:37:00,41.5,36.7,0.00,WNW,287,2.7,3.7,83,0.00,,,0.00,WUHU216CR1000,2013-02-08 03:37:00,
2013-02-07 19:47:00,41.4,36.8,0.00,WSW,240,2.3,3.7,84,0.00,,,0.00,WUHU216CR1000,2013-02-08 03:47:00,
2013-02-07 19:52:00,41.4,36.8,0.00,WSW,240,2.3,3.7,84,0.00,,,0.00,WUHU216CR1000,2013-02-08 03:52:00,
2013-02-07 20:02:00,40.6,36.3,0.00,SW,236,0.3,2.2,84,0.00,,,0.00,WUHU216CR1000,2013-02-08 04:02:00,
2013-02-07 20:07:00,40.6,36.3,0.00,SW,236,0.3,2.2,84,0.00,,,0.00,WUHU216CR1000,2013-02-08 04:07:00,
2013-02-07 20:17:00,39.5,35.9,0.00,North,0,0.0,0.0,87,0.00,,,0.00,WUHU216CR1000,2013-02-08 04:17:00,
2013-02-07 20:22:00,39.5,35.9,0.00,North,0,0.0,0.0,87,0.00,,,0.00,WUHU216CR1000,2013-02-08 04:22:00,
2013-02-07 20:32:00,38.8,35.6,0.00,North,0,0.0,0.0,88,0.00,,,0.00,WUHU216CR1000,2013-02-08 04:32:00,
2013-02-07 20:37:00,38.8,35.6,0.00,North,0,0.0,0.0,88,0.00,,,0.00,WUHU216CR1000,2013-02-08 04:37:00,
2013-02-07 20:47:00,38.6,36.0,0.00,ENE,59,1.5,2.4,90,0.00,,,0.00,WUHU216CR1000,2013-02-08 04:47:00,
2013-02-07 20:52:00,38.6,36.0,0.00,ENE,59,1.5,2.4,90,0.00,,,0.00,WUHU216CR1000,2013-02-08 04:52:00,
2013-02-07 21:02:00,38.6,35.7,0.00,NNW,328,0.4,2.3,89,0.00,,,0.00,WUHU216CR1000,2013-02-08 05:02:00,
2013-02-07 21:07:00,38.6,35.7,0.00,NNW,328,0.4,2.3,89,0.00,,,0.00,WUHU216CR1000,2013-02-08 05:07:00,
2013-02-07 21:17:00,38.4,35.8,0.00,NE,50,0.2,4.3,90,0.00,,,0.00,WUHU216CR1000,2013-02-08 05:17:00,
2013-02-07 21:22:00,38.4,35.8,0.00,NE,50,0.2,4.3,90,0.00,,,0.00,WUHU216CR1000,2013-02-08 05:22:00,
2013-02-07 21:32:00,38.6,36.1,0.00,ENE,64,1.4,4.5,91,0.00,,,0.00,WUHU216CR1000,2013-02-08 05:32:00,
2013-02-07 21:37:00,38.6,36.1,0.00,ENE,64,1.4,4.5,91,0.00,,,0.00,WUHU216CR1000,2013-02-08 05:37:00,
2013-02-07 21:47:00,38.4,35.8,0.00,North,0,0.0,0.0,90,0.00,,,0.00,WUHU216CR1000,2013-02-08 05:47:00,
2013-02-07 21:52:00,38.4,35.8,0.00,North,0,0.0,0.0,90,0.00,,,0.00,WUHU216CR1000,2013-02-08 05:52:00,
2013-02-07 22:02:00,38.4,36.1,0.00,North,0,0.0,0.0,91,0.00,,,0.00,WUHU216CR1000,2013-02-08 06:02:00,
2013-02-07 22:07:00,38.4,36.1,0.00,North,0,0.0,0.0,91,0.00,,,0.00,WUHU216CR1000,2013-02-08 06:07:00,
2013-02-07 22:17:00,37.7,35.5,0.00,North,0,0.0,0.0,92,0.00,,,0.00,WUHU216CR1000,2013-02-08 06:17:00,
2013-02-07 22:22:00,37.7,35.5,0.00,North,0,0.0,0.0,92,0.00,,,0.00,WUHU216CR1000,2013-02-08 06:22:00,
2013-02-07 22:32:00,36.6,34.8,0.00,North,0,0.0,0.0,93,0.00,,,0.00,WUHU216CR1000,2013-02-08 06:32:00,
2013-02-07 22:37:00,36.6,34.8,0.00,North,0,0.0,0.0,93,0.00,,,0.00,WUHU216CR1000,2013-02-08 06:37:00,
2013-02-07 22:47:00,36.1,34.4,0.00,North,0,0.0,0.0,94,0.00,,,0.00,WUHU216CR1000,2013-02-08 06:47:00,
2013-02-07 22:52:00,36.1,34.4,0.00,North,0,0.0,0.0,94,0.00,,,0.00,WUHU216CR1000,2013-02-08 06:52:00,
2013-02-07 23:02:00,34.9,33.4,0.00,SSE,160,0.8,2.5,94,0.00,,,0.00,WUHU216CR1000,2013-02-08 07:02:00,
2013-02-07 23:07:00,34.9,33.4,0.00,SSE,160,0.8,2.5,94,0.00,,,0.00,WUHU216CR1000,2013-02-08 07:07:00,
2013-02-07 23:17:00,34.1,32.6,0.00,SSE,164,0.1,0.9,95,0.00,,,0.00,WUHU216CR1000,2013-02-08 07:17:00,
2013-02-07 23:22:00,34.1,32.6,0.00,SSE,164,0.1,0.9,95,0.00,,,0.00,WUHU216CR1000,2013-02-08 07:22:00,
2013-02-07 23:32:00,33.9,32.6,0.00,NE,42,0.8,3.5,95,0.00,,,0.00,WUHU216CR1000,2013-02-08 07:32:00,
2013-02-07 23:37:00,33.9,32.6,0.00,NE,42,0.8,3.5,95,0.00,,,0.00,WUHU216CR1000,2013-02-08 07:37:00,
2013-02-07 23:47:00,33.6,32.3,0.00,SE,124,1.8,3.1,95,0.00,,,0.00,WUHU216CR1000,2013-02-08 07:47:00,
2013-02-07 23:52:00,33.6,32.3,0.00,SE,124,1.8,3.1,95,0.00,,,0.00,WUHU216CR1000,2013-02-08 07:52:00,